User: anonymous   Login
Location: Unspecified
(0.0000°N, 0.0000°E)
Time: 08:37:28
(UTC+01:00)
Language:

Orbus 21S - Orbit

View from above orbital plane
View from above orbital plane
View from above satellite
View from above satellite

Ground track
Ground track

The orbit data is extracted from the following two-line orbital elements,

1 20669U 90056C   14304.82342257  .00001285  00000-0  14300-2 0  4056
2 20669 024.1033 126.4425 7122319 055.6288 308.6261 02.44680307203736
Epoch (UTC): 31 October 2014 19:45:43
Eccentricity: 0.7122319
inclination: 24.1033°
perigee height: 316 km
apogee height: 33453 km
right ascension of ascending node: 126.4425°
argument of perigee: 55.6288°
revolutions per day: 2.44680307
mean anomaly at epoch: 308.6261°
orbit number at epoch: 20373

The dashed part of the orbit path shows where the satellite is in the earth's shadow,  

DLR